Location: Dackenheim
(49.5215°N, 8.1854°E)
Time: 23:23:40
(UTC+00:00)

AO-91 - Visible Passes

Search period start: 12 March 2026 00:00
Search period end: 22 March 2026 00:00
Orbit: 427 x 640 km, 97.5° (Epoch: 12 March)

Date Brightness Start Highest point End Pass type
(mag) Time Alt. Az. Time Alt. Az. Time Alt. Az.
12 Mar ? 20:40:21 10° NNE 20:41:11 15° NNE 20:41:11 15° NNE visible
12 Mar ? 22:16:15 10° NNW 22:16:34 11° NNW 22:16:34 11° NNW visible
13 Mar ? 20:30:55 10° NNE 20:31:51 16° NNE 20:31:51 16° NNE visible
13 Mar ? 22:06:26 10° NNW 22:07:13 13° NNW 22:07:13 13° NNW visible
14 Mar ? 20:21:30 10° NNE 20:22:29 16° NNE 20:22:29 16° NNE visible
14 Mar ? 21:56:42 10° NNW 21:57:51 15° NNW 21:57:51 15° NNW visible
15 Mar ? 20:12:05 10° NNE 20:13:04 16° NNE 20:13:04 16° NNE visible
15 Mar ? 21:46:59 10° N 21:48:26 17° NNW 21:48:26 17° NNW visible
16 Mar ? 20:02:41 10° NNE 20:03:38 16° NNE 20:03:38 16° NNE visible
16 Mar ? 21:37:19 10° N 21:39:00 19° NNW 21:39:00 19° NNW visible
17 Mar ? 19:53:17 10° NNE 19:54:10 15° NE 19:54:10 15° NE visible
17 Mar ? 21:27:39 10° N 21:29:32 22° NNW 21:29:32 22° NNW visible
18 Mar ? 19:43:56 10° NE 19:44:40 14° NE 19:44:40 14° NE visible
18 Mar ? 21:17:59 10° N 21:20:02 24° NNW 21:20:02 24° NNW visible
19 Mar ? 19:34:35 10° NE 19:35:08 12° NE 19:35:08 12° NE visible
19 Mar ? 21:08:19 10° N 21:10:29 26° N 21:10:29 26° N visible
20 Mar ? 19:25:20 10° NE 19:25:34 11° NE 19:25:34 11° NE visible
20 Mar ? 20:58:39 10° N 21:00:55 29° N 21:00:55 29° N visible
21 Mar ? 20:48:59 10° N 20:51:19 30° N 20:51:19 30° N visible
21 Mar ? 22:25:30 10° NW 22:26:41 11° NW 22:26:41 11° NW visible
